User: anonymous   Login
Location: Oshawa
(43.9000°N, 78.8670°W)
Time: 11:54:59
(UTC-04:00)
Language:

Cosmos 1821 Rocket - Orbit

View from above orbital plane
View from above orbital plane
View from above satellite
View from above satellite

Ground track
Ground track

The orbit data is extracted from the following two-line orbital elements,

1 17526U 87017B   14300.91100337  .00000082  00000-0  66913-4 0  1605
2 17526 082.9063 039.9821 0041648 129.5109 008.4171 13.76711407373802
Epoch (UTC): 27 October 2014 21:51:50
Eccentricity: 0.0041648
inclination: 82.9063°
perigee height: 945 km
apogee height: 1006 km
right ascension of ascending node: 39.9821°
argument of perigee: 129.5109°
revolutions per day: 13.76711407
mean anomaly at epoch: 8.4171°
orbit number at epoch: 37380

The dashed part of the orbit path shows where the satellite is in the earth's shadow,  

DLR